Date String (YYYY-MM-DD hh:mm:ss) UTC,Instrument flags,Ambient pressure (hPa),Sample flow (lpm),Bypass flow (lpm),Sample temperature (°C),Ambient temperature (°C),ASC tube jacket temperature (°C),LED temperature (°C),Box temperature (°C),Sample RH (%),Span deviation,Mass concentration (μg/m³),Mass concentration (μg/m³),Mass concentration (μg/m³)
DateTimeUTC,F1_M11,P_M11,Q1_M11,Q2_M11,T1_M11,T2_M11,T3_M11,T4_M11,T5_M11,U1_M11,ZSPAN_M11,X2_M11,X0_M11,X1_M11
2023-05-26 00:00:00,,0828.4,5.00,0.00,29.3,27.7,00.0,37.6,30.9,22.9,0000.0,0003.32,0008.30,0002.44
2023-05-26 00:01:00,,0828.5,5.00,0.00,29.3,27.7,00.0,37.6,30.8,23.1,0000.0,0003.28,0007.93,0002.43
2023-05-26 00:02:00,,0828.5,5.01,0.00,29.3,27.7,00.0,37.6,30.8,22.9,0000.0,0003.24,0007.58,0002.43
2023-05-26 00:03:00,,0828.5,5.01,0.00,29.3,27.6,00.0,37.6,30.8,23.0,0000.0,0003.23,0007.46,0002.44
2023-05-26 00:04:00,,0828.6,4.99,0.00,29.2,27.6,00.0,37.6,30.8,23.3,0000.0,0003.23,0007.94,0002.43
2023-05-26 00:05:00,,0828.5,4.99,0.00,29.2,26.1,00.0,37.2,30.8,23.4,0000.0,0003.23,0008.42,0002.43
2023-05-26 00:06:00,,0828.5,4.99,0.00,29.2,27.6,00.0,37.6,30.8,23.3,0000.0,0003.24,0008.56,0002.44
2023-05-26 00:07:00,,0828.4,5.00,0.00,29.2,27.6,00.0,37.6,30.8,23.4,0000.0,0003.21,0009.32,0002.43
2023-05-26 00:08:00,,0828.4,5.00,0.00,29.2,27.6,00.0,37.6,30.8,23.4,0000.0,0003.20,0008.62,0002.44
2023-05-26 00:09:00,,0828.5,5.00,0.00,29.2,27.6,00.0,37.6,30.8,23.5,0000.0,0003.18,0008.52,0002.45
2023-05-26 00:10:00,,0828.4,5.00,0.00,29.2,27.6,00.0,37.6,30.8,23.7,0000.0,0003.15,0008.53,0002.45
2023-05-26 00:11:00,,0828.4,5.00,0.00,29.2,27.6,00.0,37.6,30.8,23.4,0000.0,0003.16,0008.67,0002.45
2023-05-26 00:12:00,,0828.5,5.00,0.00,29.2,27.6,00.0,37.6,30.8,23.0,0000.0,0003.17,0008.81,0002.46
2023-05-26 00:13:00,,0828.5,5.00,0.00,29.2,27.6,00.0,37.6,30.8,23.3,0000.0,0003.21,0008.93,0002.49
2023-05-26 00:14:00,,0828.5,5.00,0.00,29.2,27.5,00.0,37.6,30.8,23.7,0000.0,0003.22,0009.32,0002.51
2023-05-26 00:15:00,,0828.5,5.01,0.00,29.2,27.6,00.0,37.6,30.8,23.6,0000.0,0003.20,0008.88,0002.52
2023-05-26 00:16:00,,0828.5,5.00,0.00,29.2,27.6,00.0,37.6,30.8,23.7,0000.0,0003.22,0008.34,0002.55
2023-05-26 00:17:00,,0828.6,4.99,0.00,29.2,27.6,00.0,37.6,30.8,23.6,0000.0,0003.22,0008.27,0002.55
2023-05-26 00:18:00,,0828.5,5.00,0.00,29.2,27.5,00.0,37.6,30.8,23.7,0000.0,0003.23,0007.06,0002.57
2023-05-26 00:19:00,,0828.5,5.00,0.00,29.2,27.5,00.0,37.6,30.8,23.7,0000.0,0003.25,0007.10,0002.59
2023-05-26 00:20:00,,0828.5,4.99,0.00,29.2,27.5,00.0,37.6,30.8,23.6,0000.0,0003.31,0007.31,0002.63
2023-05-26 00:21:00,,0828.4,5.00,0.00,29.2,27.5,00.0,37.6,30.8,23.4,0000.0,0003.38,0007.47,0002.66
2023-05-26 00:22:00,,0828.4,5.00,0.00,29.2,27.5,00.0,37.6,30.8,23.2,0000.0,0003.40,0007.37,0002.68
2023-05-26 00:23:00,,0828.4,5.00,0.00,29.2,27.5,00.0,37.6,30.8,23.2,0000.0,0003.42,0007.18,0002.70
2023-05-26 00:24:00,,0828.4,5.00,0.00,29.2,27.5,00.0,37.6,30.8,23.5,0000.0,0003.43,0007.10,0002.71
2023-05-26 00:25:00,,0828.4,5.01,0.00,29.2,27.5,00.0,37.6,30.8,23.9,0000.0,0003.45,0006.71,0002.71
2023-05-26 00:26:00,,0828.4,5.00,0.00,29.2,27.6,00.0,37.6,30.8,23.7,0000.0,0003.50,0006.58,0002.72
2023-05-26 00:27:00,,0828.4,5.00,0.00,29.2,27.6,00.0,37.6,30.8,23.8,0000.0,0003.49,0006.97,0002.73
2023-05-26 00:28:00,,0828.4,5.00,0.00,29.2,27.6,00.0,37.6,30.8,23.8,0000.0,0003.46,0007.49,0002.71
2023-05-26 00:29:00,,0828.4,5.00,0.00,29.2,27.6,00.0,37.6,30.8,23.9,0000.0,0003.46,0007.89,0002.71
2023-05-26 00:30:00,,0828.4,5.00,0.00,29.2,27.6,00.0,37.6,30.8,24.0,0000.0,0003.47,0008.20,0002.70
2023-05-26 00:31:00,,0828.4,5.00,0.00,29.2,27.7,00.0,37.6,30.8,24.0,0000.0,0003.49,0008.29,0002.72
2023-05-26 00:32:00,,0828.4,5.00,0.00,29.2,27.7,00.0,37.6,30.8,23.8,0000.0,0003.45,0008.48,0002.73
2023-05-26 00:33:00,,0828.4,5.00,0.00,29.2,27.7,00.0,37.6,30.9,24.0,0000.0,0003.48,0008.95,0002.74
2023-05-26 00:34:00,,0828.4,5.00,0.00,29.3,27.7,00.0,37.6,30.9,24.1,0000.0,0003.50,0009.40,0002.74
2023-05-26 00:35:00,,0828.4,5.01,0.00,29.3,27.8,00.0,37.6,30.9,24.2,0000.0,0003.49,0009.67,0002.74
2023-05-26 00:36:00,,0828.4,5.00,0.00,29.3,27.8,00.0,37.6,30.9,24.4,0000.0,0003.49,0009.67,0002.77
2023-05-26 00:37:00,,0828.4,5.00,0.00,29.3,27.8,00.0,37.7,30.9,24.4,0000.0,0003.44,0009.52,0002.77
2023-05-26 00:38:00,,0828.4,5.00,0.00,29.3,27.9,00.0,37.7,30.9,24.6,0000.0,0003.43,0009.24,0002.77
2023-05-26 00:39:00,,0828.4,5.00,0.00,29.3,27.9,00.0,37.7,31.0,24.5,0000.0,0003.47,0008.85,0002.79
2023-05-26 00:40:00,,0828.4,5.00,0.00,29.3,27.9,00.0,37.7,31.0,24.5,0000.0,0003.50,0008.56,0002.81
2023-05-26 00:41:00,,0828.4,4.99,0.00,29.4,27.9,00.0,37.7,31.0,24.7,0000.0,0003.49,0008.12,0002.81
2023-05-26 00:42:00,,0828.4,5.00,0.00,29.4,27.9,00.0,37.7,31.0,24.7,0000.0,0003.45,0007.92,0002.79
2023-05-26 00:43:00,,0828.4,5.00,0.00,29.4,27.9,00.0,37.7,31.0,24.6,0000.0,0003.46,0007.80,0002.79
2023-05-26 00:44:00,,0828.4,5.00,0.00,29.4,28.0,00.0,37.7,31.0,24.6,0000.0,0003.47,0007.54,0002.80
2023-05-26 00:45:00,,0828.4,5.01,0.00,29.4,27.9,00.0,37.7,31.0,24.8,0000.0,0003.49,0006.90,0002.82
2023-05-26 00:46:00,,0828.5,5.00,0.00,29.4,27.9,00.0,37.7,31.0,24.9,0000.0,0003.47,0006.40,0002.82
2023-05-26 00:47:00,,0828.4,5.00,0.00,29.4,27.9,00.0,37.7,31.0,24.9,0000.0,0003.50,0006.52,0002.82
2023-05-26 00:48:00,,0828.5,4.99,0.00,29.4,27.9,00.0,37.8,31.0,24.9,0000.0,0003.51,0006.78,0002.82
2023-05-26 00:49:00,,0828.5,4.99,0.00,29.4,27.9,00.0,37.8,31.0,24.9,0000.0,0003.53,0006.86,0002.84
2023-05-26 00:50:00,,0828.6,5.00,0.00,29.4,27.9,00.0,37.8,31.0,25.0,0000.0,0003.53,0006.88,0002.84
2023-05-26 00:51:00,,0828.6,5.00,0.00,29.4,27.9,00.0,37.8,31.0,25.3,0000.0,0003.51,0006.78,0002.84
2023-05-26 00:52:00,,0828.6,5.00,0.00,29.5,28.0,00.0,37.8,31.1,25.5,0000.0,0003.53,0007.05,0002.86
2023-05-26 00:53:00,,0828.6,5.00,0.00,29.5,28.0,00.0,37.8,31.1,25.2,0000.0,0003.56,0007.44,0002.86
2023-05-26 00:54:00,,0828.6,4.99,0.00,29.5,27.2,00.0,37.8,31.0,25.2,0000.0,0003.60,0007.47,0002.88
2023-05-26 00:55:00,,0828.6,5.00,0.00,29.4,25.6,00.0,37.7,30.8,25.0,0000.6,0003.64,0007.31,0002.89
2023-05-26 00:56:00,,0828.6,5.01,0.00,29.4,25.2,00.0,37.6,30.6,24.9,0000.5,0003.62,0007.56,0002.89
2023-05-26 00:57:00,,0828.6,5.01,0.00,29.2,25.4,00.0,37.6,30.5,25.2,0000.0,0003.63,0008.00,0002.89
2023-05-26 00:58:00,,0828.6,4.99,0.00,29.2,25.7,00.0,37.6,30.5,25.5,0000.0,0003.62,0008.02,0002.89
2023-05-26 00:59:00,,0828.7,5.00,0.00,29.2,26.0,00.0,37.6,30.6,26.0,0000.0,0003.61,0007.96,0002.88
